Retour au catalogue

QIANFAN-7

ActifCommunicationsPO
NORAD 60385·PAYLOAD·🇨🇳 China

Lancé Aug 6, 2024 depuis Taiyuan Satellite Launch Center

Loading…

Prochains Passages (prochaines 24 heures)

TLE

FraisSource: Space-Track

Époque: Sep 14, 2026, 14:09 UTC

1 60385U 24140G   26257.59023948  .00000126  00000-0  44745-4 0  9992
2 60385  88.9718 261.2506 0013809 204.0776 155.9775 14.27892449109755

Suivez QIANFAN-7 en temps réel avec AllMySat

Download on the App Store